Year,Month,Day,Hour,Minute,Value (Times are PST for temperature in C)
2007,07,03,00,00,16.20
2007,07,03,00,01,16.20
2007,07,03,00,02,16.20
2007,07,03,00,03,16.20
2007,07,03,00,04,16.20
2007,07,03,00,05,16.20
2007,07,03,00,06,16.20
2007,07,03,00,07,16.20
2007,07,03,00,08,16.20
2007,07,03,00,09,16.20
2007,07,03,00,10,16.20
2007,07,03,00,11,16.20
2007,07,03,00,12,16.20
2007,07,03,00,13,16.20
2007,07,03,00,14,16.20
2007,07,03,00,15,16.20
2007,07,03,00,16,16.20
2007,07,03,00,17,16.20
2007,07,03,00,18,16.20
2007,07,03,00,19,16.30
2007,07,03,00,20,16.30
2007,07,03,00,21,16.30
2007,07,03,00,22,16.20
2007,07,03,00,23,16.20
2007,07,03,00,24,16.20
2007,07,03,00,25,16.20
2007,07,03,00,26,16.10
2007,07,03,00,27,16.10
2007,07,03,00,28,16.10
2007,07,03,00,29,16.10
2007,07,03,00,30,16.10
2007,07,03,00,31,16.00
2007,07,03,00,32,16.00
2007,07,03,00,33,15.80
2007,07,03,00,34,15.70
2007,07,03,00,35,15.50
2007,07,03,00,36,15.40
2007,07,03,00,37,15.40
2007,07,03,00,38,15.30
2007,07,03,00,39,15.30
2007,07,03,00,40,15.30
2007,07,03,00,41,15.30
2007,07,03,00,42,15.20
2007,07,03,00,43,15.20
2007,07,03,00,44,15.10
2007,07,03,00,45,15.10
2007,07,03,00,46,15.10
2007,07,03,00,47,15.10
2007,07,03,00,48,15.00
2007,07,03,00,49,15.00
2007,07,03,00,50,15.00
2007,07,03,00,51,15.00
2007,07,03,00,52,15.00
2007,07,03,00,53,15.00
2007,07,03,00,54,15.00
2007,07,03,00,55,15.00
2007,07,03,00,56,15.00
2007,07,03,00,57,15.00
2007,07,03,00,58,15.00
2007,07,03,00,59,15.00
2007,07,03,01,00,15.00
2007,07,03,01,01,14.90
2007,07,03,01,02,14.90
2007,07,03,01,03,14.80
2007,07,03,01,04,14.80
2007,07,03,01,05,14.80
2007,07,03,01,06,14.80
2007,07,03,01,07,14.80
2007,07,03,01,08,14.70
2007,07,03,01,09,14.70
2007,07,03,01,10,14.70
2007,07,03,01,11,14.70
2007,07,03,01,12,14.70
2007,07,03,01,13,14.60
2007,07,03,01,14,14.60
2007,07,03,01,15,14.60
2007,07,03,01,16,14.60
2007,07,03,01,17,14.70
2007,07,03,01,18,14.70
2007,07,03,01,19,14.70
2007,07,03,01,20,14.70
2007,07,03,01,21,14.70
2007,07,03,01,22,14.70
2007,07,03,01,23,14.70
2007,07,03,01,24,14.70
2007,07,03,01,25,14.70
2007,07,03,01,26,14.70
2007,07,03,01,27,14.70
2007,07,03,01,28,14.70
2007,07,03,01,29,14.70
2007,07,03,01,30,14.70
2007,07,03,01,31,14.70
2007,07,03,01,32,14.70
2007,07,03,01,33,14.70
2007,07,03,01,34,14.70
2007,07,03,01,35,14.70
2007,07,03,01,36,14.70
2007,07,03,01,37,14.70
2007,07,03,01,38,14.70
2007,07,03,01,39,14.70
2007,07,03,01,40,14.70
2007,07,03,01,41,14.70
2007,07,03,01,42,14.70
2007,07,03,01,43,14.70
2007,07,03,01,44,14.70
2007,07,03,01,45,14.60
2007,07,03,01,46,14.60
2007,07,03,01,47,14.60
2007,07,03,01,48,14.60
2007,07,03,01,49,14.60
2007,07,03,01,50,14.60
2007,07,03,01,51,14.60
2007,07,03,01,52,14.60
2007,07,03,01,53,14.50
2007,07,03,01,54,14.50
2007,07,03,01,55,14.50
2007,07,03,01,56,14.50
2007,07,03,01,57,14.50
2007,07,03,01,58,14.50
2007,07,03,01,59,14.40
2007,07,03,02,00,14.40
2007,07,03,02,01,14.40
2007,07,03,02,02,14.40
2007,07,03,02,03,14.40
2007,07,03,02,04,14.40
2007,07,03,02,05,14.30
2007,07,03,02,06,14.30
2007,07,03,02,07,14.30
2007,07,03,02,08,14.20
2007,07,03,02,09,14.20
2007,07,03,02,10,14.10
2007,07,03,02,11,14.00
2007,07,03,02,12,13.90
2007,07,03,02,13,13.80
2007,07,03,02,14,13.80
2007,07,03,02,15,13.80
2007,07,03,02,16,13.70
2007,07,03,02,17,13.70
2007,07,03,02,18,13.70
2007,07,03,02,19,13.70
2007,07,03,02,20,13.70
2007,07,03,02,21,13.70
2007,07,03,02,22,13.70
2007,07,03,02,23,13.60
2007,07,03,02,24,13.60
2007,07,03,02,25,13.60
2007,07,03,02,26,13.60
2007,07,03,02,27,13.60
2007,07,03,02,28,13.50
2007,07,03,02,29,13.50
2007,07,03,02,30,13.50
2007,07,03,02,31,13.40
2007,07,03,02,32,13.40
2007,07,03,02,33,13.40
2007,07,03,02,34,13.40
2007,07,03,02,35,13.40
2007,07,03,02,36,13.40
2007,07,03,02,37,13.40
2007,07,03,02,38,13.40
2007,07,03,02,39,13.40
2007,07,03,02,40,13.40
2007,07,03,02,41,13.40
2007,07,03,02,42,13.50
2007,07,03,02,43,13.50
2007,07,03,02,44,13.50
2007,07,03,02,45,13.50
2007,07,03,02,46,13.50
2007,07,03,02,47,13.50
2007,07,03,02,48,13.60
2007,07,03,02,49,13.60
2007,07,03,02,50,13.60
2007,07,03,02,51,13.60
2007,07,03,02,52,13.60
2007,07,03,02,53,13.70
2007,07,03,02,54,13.70
2007,07,03,02,55,13.70
2007,07,03,02,56,13.70
2007,07,03,02,57,13.70
2007,07,03,02,58,13.70
2007,07,03,02,59,13.70
2007,07,03,03,00,13.70
2007,07,03,03,01,13.70
2007,07,03,03,02,13.80
2007,07,03,03,03,13.80
2007,07,03,03,04,13.80
2007,07,03,03,05,13.80
2007,07,03,03,06,13.80
2007,07,03,03,07,13.80
2007,07,03,03,08,13.80
2007,07,03,03,09,13.80
2007,07,03,03,10,13.80
2007,07,03,03,11,13.80
2007,07,03,03,12,13.80
2007,07,03,03,13,13.70
2007,07,03,03,14,13.70
2007,07,03,03,15,13.60
2007,07,03,03,16,13.60
2007,07,03,03,17,13.60
2007,07,03,03,18,13.60
2007,07,03,03,19,13.50
2007,07,03,03,20,13.50
2007,07,03,03,21,13.50
2007,07,03,03,22,13.50
2007,07,03,03,23,13.40
2007,07,03,03,24,13.40
2007,07,03,03,25,13.40
2007,07,03,03,26,13.30
2007,07,03,03,27,13.30
2007,07,03,03,28,13.30
2007,07,03,03,29,13.30
2007,07,03,03,30,13.30
2007,07,03,03,31,13.30
2007,07,03,03,32,13.30
2007,07,03,03,33,13.20
2007,07,03,03,34,13.20
2007,07,03,03,35,13.20
2007,07,03,03,36,13.20
2007,07,03,03,37,13.20
2007,07,03,03,38,13.20
2007,07,03,03,39,13.20
2007,07,03,03,40,13.10
2007,07,03,03,41,13.10
2007,07,03,03,42,13.10
2007,07,03,03,43,13.10
2007,07,03,03,44,13.10
2007,07,03,03,45,13.10
2007,07,03,03,46,13.00
2007,07,03,03,47,13.00
2007,07,03,03,48,12.90
2007,07,03,03,49,12.90
2007,07,03,03,50,12.80
2007,07,03,03,51,12.70
2007,07,03,03,52,12.70
2007,07,03,03,53,12.60
2007,07,03,03,54,12.60
2007,07,03,03,55,12.60
2007,07,03,03,56,12.50
2007,07,03,03,57,12.50
2007,07,03,03,58,12.40
2007,07,03,03,59,12.40
2007,07,03,04,00,12.40
2007,07,03,04,01,12.30
2007,07,03,04,02,12.30
2007,07,03,04,03,12.30
2007,07,03,04,04,12.30
2007,07,03,04,05,12.20
2007,07,03,04,06,12.20
2007,07,03,04,07,12.20
2007,07,03,04,08,12.20
2007,07,03,04,09,12.10
2007,07,03,04,10,12.10
2007,07,03,04,11,12.10
2007,07,03,04,12,12.10
2007,07,03,04,13,12.10
2007,07,03,04,14,12.00
2007,07,03,04,15,12.00
2007,07,03,04,16,12.00
2007,07,03,04,17,11.90
2007,07,03,04,18,11.90
2007,07,03,04,19,11.90
2007,07,03,04,20,11.90
2007,07,03,04,21,11.90
2007,07,03,04,22,11.80
2007,07,03,04,23,11.80
2007,07,03,04,24,11.80
2007,07,03,04,25,11.80
2007,07,03,04,26,11.80
2007,07,03,04,27,11.80
2007,07,03,04,28,11.80
2007,07,03,04,29,11.70
2007,07,03,04,30,11.70
2007,07,03,04,31,11.70
2007,07,03,04,32,11.70
2007,07,03,04,33,11.70
2007,07,03,04,34,11.70
2007,07,03,04,35,11.70
2007,07,03,04,36,11.70
2007,07,03,04,37,11.70
2007,07,03,04,38,11.70
2007,07,03,04,39,11.60
2007,07,03,04,40,11.60
2007,07,03,04,41,11.60
2007,07,03,04,42,11.60
2007,07,03,04,43,11.60
2007,07,03,04,44,11.60
2007,07,03,04,45,11.60
2007,07,03,04,46,11.60
2007,07,03,04,47,11.60
2007,07,03,04,48,11.60
2007,07,03,04,49,11.60
2007,07,03,04,50,11.60
2007,07,03,04,51,11.60
2007,07,03,04,52,11.60
2007,07,03,04,53,11.60
2007,07,03,04,54,11.60
2007,07,03,04,55,11.60
2007,07,03,04,56,11.60
2007,07,03,04,57,11.60
2007,07,03,04,58,11.60
2007,07,03,04,59,11.60
2007,07,03,05,00,11.60
2007,07,03,05,01,11.60
2007,07,03,05,02,11.60
2007,07,03,05,03,11.60
2007,07,03,05,04,11.60
2007,07,03,05,05,11.60
2007,07,03,05,06,11.60
2007,07,03,05,07,11.60
2007,07,03,05,08,11.60
2007,07,03,05,09,11.60
2007,07,03,05,10,11.60
2007,07,03,05,11,11.60
2007,07,03,05,12,11.60
2007,07,03,05,13,11.60
2007,07,03,05,14,11.60
2007,07,03,05,15,11.70
2007,07,03,05,16,11.70
2007,07,03,05,17,11.70
2007,07,03,05,18,11.70
2007,07,03,05,19,11.70
2007,07,03,05,20,11.70
2007,07,03,05,21,11.70
2007,07,03,05,22,11.70
2007,07,03,05,23,11.70
2007,07,03,05,24,11.70
2007,07,03,05,25,11.70
2007,07,03,05,26,11.70
2007,07,03,05,27,11.70
2007,07,03,05,28,11.70
2007,07,03,05,29,11.70
2007,07,03,05,30,11.70
2007,07,03,05,31,11.60
2007,07,03,05,32,11.60
2007,07,03,05,33,11.60
2007,07,03,05,34,11.60
2007,07,03,05,35,11.60
2007,07,03,05,36,11.60
2007,07,03,05,37,11.70
2007,07,03,05,38,11.70
2007,07,03,05,39,11.70
2007,07,03,05,40,11.70
2007,07,03,05,41,11.70
2007,07,03,05,42,11.70
2007,07,03,05,43,11.70
2007,07,03,05,44,11.70
2007,07,03,05,45,11.70
2007,07,03,05,46,11.70
2007,07,03,05,47,11.70
2007,07,03,05,48,11.70
2007,07,03,05,49,11.70
2007,07,03,05,50,11.80
2007,07,03,05,51,11.80
2007,07,03,05,52,11.80
2007,07,03,05,53,11.80
2007,07,03,05,54,11.80
2007,07,03,05,55,11.80
2007,07,03,05,56,11.80
2007,07,03,05,57,11.80
2007,07,03,05,58,11.80
2007,07,03,05,59,11.80
2007,07,03,06,00,11.90
2007,07,03,06,01,11.90
2007,07,03,06,02,11.90
2007,07,03,06,03,11.90
2007,07,03,06,04,12.00
2007,07,03,06,05,12.00
2007,07,03,06,06,12.00
2007,07,03,06,07,12.10
2007,07,03,06,08,12.10
2007,07,03,06,09,12.10
2007,07,03,06,10,12.10
2007,07,03,06,11,12.10
2007,07,03,06,12,12.10
2007,07,03,06,13,12.10
2007,07,03,06,14,12.10
2007,07,03,06,15,12.10
2007,07,03,06,16,12.10
2007,07,03,06,17,12.10
2007,07,03,06,18,12.20
2007,07,03,06,19,12.20
2007,07,03,06,20,12.20
2007,07,03,06,21,12.20
2007,07,03,06,22,12.20
2007,07,03,06,23,12.20
2007,07,03,06,24,12.20
2007,07,03,06,25,12.20
2007,07,03,06,26,12.20
2007,07,03,06,27,12.20
2007,07,03,06,28,12.20
2007,07,03,06,29,12.20
2007,07,03,06,30,12.20
2007,07,03,06,31,12.20
2007,07,03,06,32,12.20
2007,07,03,06,33,12.20
2007,07,03,06,34,12.20
2007,07,03,06,35,12.30
2007,07,03,06,36,12.30
2007,07,03,06,37,12.30
2007,07,03,06,38,12.30
2007,07,03,06,39,12.30
2007,07,03,06,40,12.30
2007,07,03,06,41,12.30
2007,07,03,06,42,12.30
2007,07,03,06,43,12.30
2007,07,03,06,44,12.30
2007,07,03,06,45,12.30
2007,07,03,06,46,12.30
2007,07,03,06,47,12.30
2007,07,03,06,48,12.40
2007,07,03,06,49,12.40
2007,07,03,06,50,12.40
2007,07,03,06,51,12.40
2007,07,03,06,52,12.50
2007,07,03,06,53,12.50
2007,07,03,06,54,12.60
2007,07,03,06,55,12.60
2007,07,03,06,56,12.60
2007,07,03,06,57,12.60
2007,07,03,06,58,12.70
2007,07,03,06,59,12.70
2007,07,03,07,00,12.70
2007,07,03,07,01,12.70
2007,07,03,07,02,12.70
2007,07,03,07,03,12.70
2007,07,03,07,04,12.70
2007,07,03,07,05,12.70
2007,07,03,07,06,12.80
2007,07,03,07,07,12.80
2007,07,03,07,08,12.80
2007,07,03,07,09,12.80
2007,07,03,07,10,12.80
2007,07,03,07,11,12.80
2007,07,03,07,12,12.80
2007,07,03,07,13,12.80
2007,07,03,07,14,12.90
2007,07,03,07,15,12.90
2007,07,03,07,16,12.90
2007,07,03,07,17,12.90
2007,07,03,07,18,12.90
2007,07,03,07,19,13.00
2007,07,03,07,20,13.00
2007,07,03,07,21,13.00
2007,07,03,07,22,13.00
2007,07,03,07,23,13.00
2007,07,03,07,24,13.10
2007,07,03,07,25,13.10
2007,07,03,07,26,13.10
2007,07,03,07,27,13.10
2007,07,03,07,28,13.10
2007,07,03,07,29,13.10
2007,07,03,07,30,13.10
2007,07,03,07,31,13.10
2007,07,03,07,32,13.10
2007,07,03,07,33,13.10
2007,07,03,07,34,13.10
2007,07,03,07,35,13.10
2007,07,03,07,36,13.10
2007,07,03,07,37,13.10
2007,07,03,07,38,13.10
2007,07,03,07,39,13.20
2007,07,03,07,40,13.20
2007,07,03,07,41,13.20
2007,07,03,07,42,13.20
2007,07,03,07,43,13.20
2007,07,03,07,44,13.20
2007,07,03,07,45,13.20
2007,07,03,07,46,13.30
2007,07,03,07,47,13.30
2007,07,03,07,48,13.30
2007,07,03,07,49,13.30
2007,07,03,07,50,13.40
2007,07,03,07,51,13.40
2007,07,03,07,52,13.50
2007,07,03,07,53,13.50
2007,07,03,07,54,13.50
2007,07,03,07,55,13.60
2007,07,03,07,56,13.60
2007,07,03,07,57,13.60
2007,07,03,07,58,13.70
2007,07,03,07,59,13.70
2007,07,03,08,00,13.70
2007,07,03,08,01,13.70
2007,07,03,08,02,13.80
2007,07,03,08,03,13.80
2007,07,03,08,04,13.80
2007,07,03,08,05,13.90
2007,07,03,08,06,13.90
2007,07,03,08,07,13.90
2007,07,03,08,08,13.90
2007,07,03,08,09,13.90
2007,07,03,08,10,13.90
2007,07,03,08,11,13.90
2007,07,03,08,12,13.90
2007,07,03,08,13,13.90
2007,07,03,08,14,13.90
2007,07,03,08,15,14.00
2007,07,03,08,16,14.00
2007,07,03,08,17,14.00
2007,07,03,08,18,14.00
2007,07,03,08,19,14.00
2007,07,03,08,20,14.10
2007,07,03,08,21,14.10
2007,07,03,08,22,14.10
2007,07,03,08,23,14.10
2007,07,03,08,24,14.20
2007,07,03,08,25,14.20
2007,07,03,08,26,14.20
2007,07,03,08,27,14.20
2007,07,03,08,28,14.20
2007,07,03,08,29,14.20
2007,07,03,08,30,14.20
2007,07,03,08,31,14.20
2007,07,03,08,32,14.20
2007,07,03,08,33,14.30
2007,07,03,08,34,14.30
2007,07,03,08,35,14.30
2007,07,03,08,36,14.30
2007,07,03,08,37,14.40
2007,07,03,08,38,14.40
2007,07,03,08,39,14.40
2007,07,03,08,40,14.40
2007,07,03,08,41,14.40
2007,07,03,08,42,14.40
2007,07,03,08,43,14.40
2007,07,03,08,44,14.30
2007,07,03,08,45,14.30
2007,07,03,08,46,14.30
2007,07,03,08,47,14.20
2007,07,03,08,48,14.20
2007,07,03,08,49,14.20
2007,07,03,08,50,14.10
2007,07,03,08,51,14.00
2007,07,03,08,52,13.90
2007,07,03,08,53,13.80
2007,07,03,08,54,13.70
2007,07,03,08,55,13.60
2007,07,03,08,56,13.50
2007,07,03,08,57,13.40
2007,07,03,08,58,13.40
2007,07,03,08,59,13.40
2007,07,03,09,00,13.40
2007,07,03,09,01,13.40
2007,07,03,09,02,13.40
2007,07,03,09,03,13.40
2007,07,03,09,04,13.40
2007,07,03,09,05,13.50
2007,07,03,09,06,13.50
2007,07,03,09,07,13.60
2007,07,03,09,08,13.60
2007,07,03,09,09,13.70
2007,07,03,09,10,13.70
2007,07,03,09,11,13.80
2007,07,03,09,12,13.80
2007,07,03,09,13,13.80
2007,07,03,09,14,13.90
2007,07,03,09,15,14.00
2007,07,03,09,16,14.00
2007,07,03,09,17,14.10
2007,07,03,09,18,14.10
2007,07,03,09,19,14.20
2007,07,03,09,20,14.20
2007,07,03,09,21,14.30
2007,07,03,09,22,14.30
2007,07,03,09,23,14.40
2007,07,03,09,24,14.40
2007,07,03,09,25,14.50
2007,07,03,09,26,14.50
2007,07,03,09,27,14.60
2007,07,03,09,28,14.60
2007,07,03,09,29,14.70
2007,07,03,09,30,14.70
2007,07,03,09,31,14.80
2007,07,03,09,32,14.80
2007,07,03,09,33,14.90
2007,07,03,09,34,14.90
2007,07,03,09,35,15.00
2007,07,03,09,36,15.00
2007,07,03,09,37,15.00
2007,07,03,09,38,15.00
2007,07,03,09,39,15.00
2007,07,03,09,40,15.00
2007,07,03,09,41,15.00
2007,07,03,09,42,15.00
2007,07,03,09,43,15.00
2007,07,03,09,44,15.00
2007,07,03,09,45,15.00
2007,07,03,09,46,15.00
2007,07,03,09,47,15.00
2007,07,03,09,48,15.00
2007,07,03,09,49,15.00
2007,07,03,09,50,15.00
2007,07,03,09,51,14.80
2007,07,03,09,52,14.70
2007,07,03,09,53,14.70
2007,07,03,09,54,14.60
2007,07,03,09,55,14.50
2007,07,03,09,56,14.50
2007,07,03,09,57,14.40
2007,07,03,09,58,14.30
2007,07,03,09,59,14.30
2007,07,03,10,00,14.30
2007,07,03,10,01,14.30
2007,07,03,10,02,14.30
2007,07,03,10,03,14.20
2007,07,03,10,04,14.20
2007,07,03,10,05,14.20
2007,07,03,10,06,14.20
2007,07,03,10,07,14.20
2007,07,03,10,08,14.20
2007,07,03,10,09,14.30
2007,07,03,10,10,14.30
2007,07,03,10,11,14.30
2007,07,03,10,12,14.20
2007,07,03,10,13,14.20
2007,07,03,10,14,14.10
2007,07,03,10,15,14.00
2007,07,03,10,16,13.90
2007,07,03,10,17,13.80
2007,07,03,10,18,13.70
2007,07,03,10,19,13.70
2007,07,03,10,20,13.60
2007,07,03,10,21,13.60
2007,07,03,10,22,13.60
2007,07,03,10,23,13.50
2007,07,03,10,24,13.40
2007,07,03,10,25,13.40
2007,07,03,10,26,13.30
2007,07,03,10,27,13.30
2007,07,03,10,28,13.30
2007,07,03,10,29,13.20
2007,07,03,10,30,13.20
2007,07,03,10,31,13.20
2007,07,03,10,32,13.20
2007,07,03,10,33,13.20
2007,07,03,10,34,13.10
2007,07,03,10,35,13.00
2007,07,03,10,36,13.00
2007,07,03,10,37,12.90
2007,07,03,10,38,12.90
2007,07,03,10,39,12.90
2007,07,03,10,40,12.90
2007,07,03,10,41,13.00
2007,07,03,10,42,13.00
2007,07,03,10,43,13.00
2007,07,03,10,44,13.10
2007,07,03,10,45,13.10
2007,07,03,10,46,13.10
2007,07,03,10,47,13.00
2007,07,03,10,48,13.00
2007,07,03,10,49,13.10
2007,07,03,10,50,13.10
2007,07,03,10,51,13.10
2007,07,03,10,52,13.10
2007,07,03,10,53,13.10
2007,07,03,10,54,13.20
2007,07,03,10,55,13.20
2007,07,03,10,56,13.20
2007,07,03,10,57,13.30
2007,07,03,10,58,13.30
2007,07,03,10,59,13.30
2007,07,03,11,00,13.30
2007,07,03,11,01,13.30
2007,07,03,11,02,13.30
2007,07,03,11,03,13.30
2007,07,03,11,04,13.30
2007,07,03,11,05,13.30
2007,07,03,11,06,13.40
2007,07,03,11,07,13.50
2007,07,03,11,08,13.50
2007,07,03,11,09,13.60
2007,07,03,11,10,13.60
2007,07,03,11,11,13.70
2007,07,03,11,12,13.70
2007,07,03,11,13,13.80
2007,07,03,11,14,13.80
2007,07,03,11,15,13.80
2007,07,03,11,16,13.90
2007,07,03,11,17,14.00
2007,07,03,11,18,14.10
2007,07,03,11,19,14.20
2007,07,03,11,20,14.20
2007,07,03,11,21,14.20
2007,07,03,11,22,14.10
2007,07,03,11,23,14.10
2007,07,03,11,24,14.20
2007,07,03,11,25,14.20
2007,07,03,11,26,14.20
2007,07,03,11,27,14.20
2007,07,03,11,28,14.20
2007,07,03,11,29,14.10
2007,07,03,11,30,14.00
2007,07,03,11,31,13.90
2007,07,03,11,32,13.90
2007,07,03,11,33,13.90
2007,07,03,11,34,13.90
2007,07,03,11,35,13.90
2007,07,03,11,36,13.90
2007,07,03,11,37,13.90
2007,07,03,11,38,14.10
2007,07,03,11,39,14.20
2007,07,03,11,40,14.40
2007,07,03,11,41,14.40
2007,07,03,11,42,14.40
2007,07,03,11,43,14.40
2007,07,03,11,44,14.30
2007,07,03,11,45,14.30
2007,07,03,11,46,14.30
2007,07,03,11,47,14.20
2007,07,03,11,48,14.20
2007,07,03,11,49,14.20
2007,07,03,11,50,14.20
2007,07,03,11,51,14.20
2007,07,03,11,52,14.30
2007,07,03,11,53,14.40
2007,07,03,11,54,14.40
2007,07,03,11,55,14.50
2007,07,03,11,56,14.60
2007,07,03,11,57,14.50
2007,07,03,11,58,14.50
2007,07,03,11,59,14.40
2007,07,03,12,00,14.30
2007,07,03,12,01,14.30
2007,07,03,12,02,14.20
2007,07,03,12,03,14.10
2007,07,03,12,04,14.10
2007,07,03,12,05,14.10
2007,07,03,12,06,14.20
2007,07,03,12,07,14.20
2007,07,03,12,08,14.20
2007,07,03,12,09,14.30
2007,07,03,12,10,14.30
2007,07,03,12,11,14.30
2007,07,03,12,12,14.30
2007,07,03,12,13,14.40
2007,07,03,12,14,14.50
2007,07,03,12,15,14.70
2007,07,03,12,16,14.80
2007,07,03,12,17,14.80
2007,07,03,12,18,14.80
2007,07,03,12,19,14.80
2007,07,03,12,20,14.80
2007,07,03,12,21,14.80
2007,07,03,12,22,14.80
2007,07,03,12,23,14.80
2007,07,03,12,24,14.80
2007,07,03,12,25,14.80
2007,07,03,12,26,14.80
2007,07,03,12,27,14.90
2007,07,03,12,28,14.80
2007,07,03,12,29,14.80
2007,07,03,12,30,14.70
2007,07,03,12,31,14.70
2007,07,03,12,32,14.70
2007,07,03,12,33,14.80
2007,07,03,12,34,14.80
2007,07,03,12,35,15.00
2007,07,03,12,36,15.00
2007,07,03,12,37,15.00
2007,07,03,12,38,15.20
2007,07,03,12,39,15.30
2007,07,03,12,40,15.30
2007,07,03,12,41,15.40
2007,07,03,12,42,15.40
2007,07,03,12,43,15.50
2007,07,03,12,44,15.60
2007,07,03,12,45,15.70
2007,07,03,12,46,15.70
2007,07,03,12,47,15.70
2007,07,03,12,48,15.70
2007,07,03,12,49,15.60
2007,07,03,12,50,15.60
2007,07,03,12,51,15.60
2007,07,03,12,52,15.60
2007,07,03,12,53,15.70
2007,07,03,12,54,15.70
2007,07,03,12,55,15.80
2007,07,03,12,56,15.90
2007,07,03,12,57,15.90
2007,07,03,12,58,15.90
2007,07,03,12,59,15.90
2007,07,03,13,00,15.90
2007,07,03,13,01,15.90
2007,07,03,13,02,15.90
2007,07,03,13,03,15.90
2007,07,03,13,04,15.90
2007,07,03,13,05,15.90
2007,07,03,13,06,15.90
2007,07,03,13,07,15.90
2007,07,03,13,08,16.00
2007,07,03,13,09,16.00
2007,07,03,13,10,16.10
2007,07,03,13,11,16.30
2007,07,03,13,12,16.40
2007,07,03,13,13,16.60
2007,07,03,13,14,16.70
2007,07,03,13,15,16.70
2007,07,03,13,16,16.80
2007,07,03,13,17,16.90
2007,07,03,13,18,16.80
2007,07,03,13,19,16.60
2007,07,03,13,20,16.50
2007,07,03,13,21,16.50
2007,07,03,13,22,16.50
2007,07,03,13,23,16.50
2007,07,03,13,24,16.40
2007,07,03,13,25,16.40
2007,07,03,13,26,16.30
2007,07,03,13,27,16.20
2007,07,03,13,28,16.10
2007,07,03,13,29,15.90
2007,07,03,13,30,15.80
2007,07,03,13,31,15.60
2007,07,03,13,32,15.50
2007,07,03,13,33,15.50
2007,07,03,13,34,15.50
2007,07,03,13,35,15.60
2007,07,03,13,36,15.60
2007,07,03,13,37,15.70
2007,07,03,13,38,15.80
2007,07,03,13,39,15.70
2007,07,03,13,40,15.50
2007,07,03,13,41,15.40
2007,07,03,13,42,15.40
2007,07,03,13,43,15.30
2007,07,03,13,44,15.20
2007,07,03,13,45,15.20
2007,07,03,13,46,15.20
2007,07,03,13,47,15.30
2007,07,03,13,48,15.30
2007,07,03,13,49,15.30
2007,07,03,13,50,15.30
2007,07,03,13,51,15.20
2007,07,03,13,52,15.20
2007,07,03,13,53,15.30
2007,07,03,13,54,15.40
2007,07,03,13,55,15.40
2007,07,03,13,56,15.40
2007,07,03,13,57,15.30
2007,07,03,13,58,15.30
2007,07,03,13,59,15.20
2007,07,03,14,00,15.20
2007,07,03,14,01,15.20
2007,07,03,14,02,15.30
2007,07,03,14,03,15.40
2007,07,03,14,04,15.70
2007,07,03,14,05,15.80
2007,07,03,14,06,15.70
2007,07,03,14,07,15.50
2007,07,03,14,08,15.40
2007,07,03,14,09,15.30
2007,07,03,14,10,15.30
2007,07,03,14,11,15.30
2007,07,03,14,12,15.30
2007,07,03,14,13,15.40
2007,07,03,14,14,15.40
2007,07,03,14,15,15.40
2007,07,03,14,16,15.50
2007,07,03,14,17,15.50
2007,07,03,14,18,15.60
2007,07,03,14,19,15.70
2007,07,03,14,20,15.70
2007,07,03,14,21,15.70
2007,07,03,14,22,15.80
2007,07,03,14,23,15.90
2007,07,03,14,24,16.00
2007,07,03,14,25,16.20
2007,07,03,14,26,16.40
2007,07,03,14,27,16.50
2007,07,03,14,28,16.70
2007,07,03,14,29,16.80
2007,07,03,14,30,17.00
2007,07,03,14,31,17.10
2007,07,03,14,32,17.00
2007,07,03,14,33,17.00
2007,07,03,14,34,17.10
2007,07,03,14,35,17.10
2007,07,03,14,36,17.20
2007,07,03,14,37,17.40
2007,07,03,14,38,17.40
2007,07,03,14,39,17.40
2007,07,03,14,40,17.40
2007,07,03,14,41,17.20
2007,07,03,14,42,17.20
2007,07,03,14,43,17.10
2007,07,03,14,44,17.10
2007,07,03,14,45,17.20
2007,07,03,14,46,17.20
2007,07,03,14,47,17.30
2007,07,03,14,48,17.30
2007,07,03,14,49,17.30
2007,07,03,14,50,17.40
2007,07,03,14,51,17.60
2007,07,03,14,52,17.70
2007,07,03,14,53,17.80
2007,07,03,14,54,17.80
2007,07,03,14,55,17.80
2007,07,03,14,56,17.70
2007,07,03,14,57,17.70
2007,07,03,14,58,17.60
2007,07,03,14,59,17.50
2007,07,03,15,00,17.40
2007,07,03,15,01,17.40
2007,07,03,15,02,17.50
2007,07,03,15,03,17.70
2007,07,03,15,04,17.90
2007,07,03,15,05,18.00
2007,07,03,15,06,18.10
2007,07,03,15,07,18.10
2007,07,03,15,08,18.20
2007,07,03,15,09,18.30
2007,07,03,15,10,18.30
2007,07,03,15,11,18.40
2007,07,03,15,12,18.60
2007,07,03,15,13,18.80
2007,07,03,15,14,19.00
2007,07,03,15,15,19.20
2007,07,03,15,16,19.30
2007,07,03,15,17,19.40
2007,07,03,15,18,19.60
2007,07,03,15,19,19.70
2007,07,03,15,20,19.80
2007,07,03,15,21,19.90
2007,07,03,15,22,19.80
2007,07,03,15,23,19.90
2007,07,03,15,24,20.00
2007,07,03,15,25,20.00
2007,07,03,15,26,20.00
2007,07,03,15,27,20.10
2007,07,03,15,28,20.10
2007,07,03,15,29,20.10
2007,07,03,15,30,20.10
2007,07,03,15,31,20.00
2007,07,03,15,32,20.00
2007,07,03,15,33,20.00
2007,07,03,15,34,20.00
2007,07,03,15,35,19.90
2007,07,03,15,36,19.90
2007,07,03,15,37,19.80
2007,07,03,15,38,19.80
2007,07,03,15,39,19.90
2007,07,03,15,40,20.00
2007,07,03,15,41,20.00
2007,07,03,15,42,19.90
2007,07,03,15,43,19.90
2007,07,03,15,44,19.90
2007,07,03,15,45,19.90
2007,07,03,15,46,20.00
2007,07,03,15,47,20.10
2007,07,03,15,48,20.20
2007,07,03,15,49,20.30
2007,07,03,15,50,20.40
2007,07,03,15,51,20.40
2007,07,03,15,52,20.40
2007,07,03,15,53,20.40
2007,07,03,15,54,20.50
2007,07,03,15,55,20.60
2007,07,03,15,56,20.70
2007,07,03,15,57,20.90
2007,07,03,15,58,21.00
2007,07,03,15,59,21.10
2007,07,03,16,00,21.30
2007,07,03,16,01,21.30
2007,07,03,16,02,21.30
2007,07,03,16,03,21.30
2007,07,03,16,04,21.10
2007,07,03,16,05,20.90
2007,07,03,16,06,20.70
2007,07,03,16,07,20.60
2007,07,03,16,08,20.60
2007,07,03,16,09,20.60
2007,07,03,16,10,20.60
2007,07,03,16,11,20.50
2007,07,03,16,12,20.50
2007,07,03,16,13,20.40
2007,07,03,16,14,20.40
2007,07,03,16,15,20.40
2007,07,03,16,16,20.40
2007,07,03,16,17,20.50
2007,07,03,16,18,20.60
2007,07,03,16,19,20.60
2007,07,03,16,20,20.60
2007,07,03,16,21,20.60
2007,07,03,16,22,20.60
2007,07,03,16,23,20.50
2007,07,03,16,24,20.50
2007,07,03,16,25,20.40
2007,07,03,16,26,20.50
2007,07,03,16,27,20.50
2007,07,03,16,28,20.60
2007,07,03,16,29,20.50
2007,07,03,16,30,20.50
2007,07,03,16,31,20.50
2007,07,03,16,32,20.60
2007,07,03,16,33,20.50
2007,07,03,16,34,20.50
2007,07,03,16,35,20.50
2007,07,03,16,36,20.50
2007,07,03,16,37,20.50
2007,07,03,16,38,20.50
2007,07,03,16,39,20.50
2007,07,03,16,40,20.60
2007,07,03,16,41,20.70
2007,07,03,16,42,20.70
2007,07,03,16,43,20.70
2007,07,03,16,44,20.60
2007,07,03,16,45,20.60
2007,07,03,16,46,20.50
2007,07,03,16,47,20.50
2007,07,03,16,48,20.60
2007,07,03,16,49,20.70
2007,07,03,16,50,20.80
2007,07,03,16,51,20.80
2007,07,03,16,52,20.80
2007,07,03,16,53,20.80
2007,07,03,16,54,20.80
2007,07,03,16,55,20.80
2007,07,03,16,56,20.80
2007,07,03,16,57,20.90
2007,07,03,16,58,20.90
2007,07,03,16,59,21.00
2007,07,03,17,00,21.00
2007,07,03,17,01,20.90
2007,07,03,17,02,20.80
2007,07,03,17,03,20.80
2007,07,03,17,04,20.80
2007,07,03,17,05,20.80
2007,07,03,17,06,20.80
2007,07,03,17,07,20.80
2007,07,03,17,08,20.80
2007,07,03,17,09,20.80
2007,07,03,17,10,20.70
2007,07,03,17,11,20.60
2007,07,03,17,12,20.40
2007,07,03,17,13,20.30
2007,07,03,17,14,20.20
2007,07,03,17,15,20.10
2007,07,03,17,16,20.10
2007,07,03,17,17,20.10
2007,07,03,17,18,20.10
2007,07,03,17,19,20.20